Weather in Novotroitskoye

Russia / Amur Oblast     50°29′51″N   127°33′22″E
temp.,
°C
wind,
m/s
gust,
m/s
humid.,
%
clouds,
%
prec.,
mm/h
press.,
hPa
HPBL,
m
26 october, tue
tue2600:00+4sw22643 0.0 101011
03:00+3ssw11660 0.0 101010
06:00+2wsw116932 0.0 101010
09:00+4wnw116114 0.0 101176
12:00+7nnw3457100 0.0 1011489
15:00+7nnw4559100 0.0 1010603
18:00+4nw237416 0.0 101248
21:00+3wnw21810 0.0 101210
27 october, wed
wed2700:00+2wsw11835 0.0 101110
03:00+2ssw2279100 0.0 101014
06:00+2s1175100 0.0 100911
09:00+3n1271100 0.0 1009115
12:00+6n5658100 0.0 1010737
15:00+6n6864100 0.0 10131084
18:00+4nnw387715 0.0 1016183
21:00+4nnw496964 0.0 1018196
28 october, thu
thu2800:00+1wnw35860 0.0 102082
03:00+1wnw33850 0.0 102147
06:000wnw22844 0.0 102315
09:00+3w13675 0.0 1024118
12:00+8sw34455 0.0 1023622
15:00+10wsw45385 0.0 10211049
18:00+5ssw335950 0.0 102343
21:00+3s35715 0.0 102274
29 october, fri
fri2900:00+2s35740 0.0 102269
03:00+2s36765 0.0 102191
06:00+1s34795 0.0 102153
09:00+3ssw23695 0.0 1022112
12:00+9nw35485 0.0 1022705
15:00+9nnw6752100 0.0 1023911
18:00+5nnw51067100 0.0 1026464
21:00+3nnw61148100 0.0 1029530
30 october, sat
sat3000:00+1nnw61145100 0.0 1030460
03:00−1nnw51042100 0.0 1032475
06:00−2nnw51045100 0.0 1034455
09:00−2nnw5104146 0.0 1035517
12:00+2n562873 0.0 1035863
15:00+3n562347 0.0 10341034
18:00−1n223413 0.0 103518
21:00−2nnw22400 0.0 103510